CZ-4 DEB, 26143

Orbit data source: Space-Track

CZ-4 DEB, 26143 is space debris in SSO originally from a launch on Thu, 14 Oct 1999 UTC launched from the Taiyaun Space Center, China (TSC). Debris objects in space refer to the collection of defunct objects orbiting the Earth. Examples of debris include non-operational satellites, rocket bodies, and fragments generated from explosions, collisions, or faulty payload assembly.

Loading next visibility...
Identifier
26143, 1999-057AF
Orbit
SSO
Last TLE update
12 hours ago
Origin
Manufacturer
Unknown
Mission
Spacecraft
Bus & Motor
Unknown
Mass
Unknown
Launch date (UTC)
1999-10-14 (26 years ago)
Launch vehicle
Unknown
Launch site
Taiyaun Space Center, China (TSC)
Object type
Payload
Rocket body
Debris
Shape & HBR
Unknown
Radar Cross Section
Small (<0.1 m²)

Expand to show TLE details & history

TLE from 12 hours ago
0 CZ-4 DEB
1 26143U 99057AF  25138.96720652  .00000708  00000-0  60531-3 0  9995
2 26143  98.9518 133.9313 0478747  46.6940   7.7502 13.47184279234654
Epoch: 2025-05-18T23:12Z
TLE epoch observation values (Epoch: 2025-05-18T23:12:46.643Z)
Latitude
54.34053°
Longitude
-103.76209°
Altitude
737.861 km
Speed
7.667 km/s
True Right ascension
08h 05m 16s
True Declination
54° 10' 37"
Sunlit
Object was in daylight at epoch
Visualization orbit readout
Latitude
-61.07009°
Longitude
-74.23027°
Altitude
1,198.383 km
Speed
7.209 km/s
Apparent Right ascension
08h 51m 08s
Apparent Declination
-52° 17' 26"
Sunlit
Object is in daylight
Visualization observer readout
Local Sidereal Time
19:57:21
Azimuth
212.291° SW
Elevation
-74.56°
Doppler factor
1
Orbital elements
Apogee altitude
1,436.946 km
Perigee altitude
722.844 km
Semi-major axis
7,458.032 km
Eccentricity
0.04787
Inclination
98.9518°
RAAN
133.9313°
Arg. of periapsis
46.694°
True anomaly
Unknown
Mean anomaly
7.7502°
Eccentric anomaly
Unknown
Mean motion
3.36982 °/min
Orbital period
106.83 mins
BSTAR
0.00060531
Loading maneuver chart data...
Loading SW <> Apogee altitude chart data...
Loading historical data...
Loading historical data...
Loading historical data...
Loading historical data...
Loading historical data...
Loading historical data...
Loading historical data...

CZ-4 DEB Visibility forecast

Observer location: undefined°, undefined°

Span
Click to sort rows by Start time (UTC) header in descending order
Start Az.
Max El. time (UTC)
Max El. Az.
Max El.
End time (UTC)
End Az.
12 mins2025-05-19 12:00:19.355Z27.935° NE2025-05-19 12:05:19.355Z96.082° ESE38.238°2025-05-19 12:12:19.355Z176.015° S
9 mins2025-05-19 13:47:19.355Z337.238° NNW2025-05-19 13:50:19.355Z299.84° NW24.455°2025-05-19 13:56:19.355Z240.013° WSW
4 mins2025-05-19 22:19:19.355Z79.628° E2025-05-19 22:20:19.355Z64.771° ENE15.768°2025-05-19 22:23:19.355Z24.976° NE
7 mins2025-05-20 00:02:19.355Z191.635° SSW2025-05-20 00:05:19.355Z245.916° WSW35.857°2025-05-20 00:09:19.355Z329.859° NNW
|